Weather History for Challis, ID

Change the Weather History Date:

Wednesday, June 18, 2014

  Actual Average Record
Temperature  
Mean Temperature 50 °F 61 °F  
Max Temperature 63 °F 76 °F 93 °F (1940)
Min Temperature 36 °F 46 °F 31 °F (1973)
Degree Days  
Heating Degree Days 15 5  
Month to date heating degree days 136 126  
Since 1 June heating degree days 136 126  
Since 1 July heating degree days 7703 8122  
Cooling Degree Days 0 1  
Month to date cooling degree days 0 6  
Year to date cooling degree days 0 8  
Since 1 June cooling degree days 0 6  
Moisture  
Dew Point 31 °F    
Average Humidity 59    
Maximum Humidity 92    
Minimum Humidity 25    
Precipitation  
Precipitation 0.00 in 0.05 in 0.31 in (1926)
Month to date precipitation 0.17 1.09  
Year to date precipitation 2.92 5.23  
Sea Level Pressure  
Sea Level Pressure 29.93 in    
Wind  
Wind Speed 6 mph (SSE)    
Max Wind Speed 21 mph    
Max Gust Speed 25 mph    
Visibility 10 miles    
Events      
T = Trace of Precipitation, MM = Missing Value Source: NWS Daily Summary

Daily Weather History Graph

Daily Weather History Graph

Search for Another Location

Airport:

Trip Planner

Search our weather history database for the weather conditions in past years. The results will help you decide how hot, cold, wet, or windy it might be!

Date:

Astronomy

Jun. 18, 2014 Rise Set
Actual Time 5:51 AM MDT 9:24 PM MDT
Civil Twilight 5:14 AM MDT 10:01 PM MDT
Nautical Twilight 4:25 AM MDT 10:50 PM MDT
Astronomical Twilight 3:22 AM MDT 11:53 PM MDT
Moon 12:42 AM MDT (6/18) 12:33 PM MDT (6/18)
Length of Visible Light 16h 46m
Length of Day
15h 33m
Waning Gibbous, 62% of the Moon is Illuminated
Jun 18
Waning Gibbous
Jun 19
Last Quarter
Jun 27
New
Jul 5
First Quarter
Jul 12
Full

Hourly Weather History & Observations

Time (MDT) Temp. Windchill Dew Point Humidity Pressure Visibility Wind Dir Wind Speed Gust Speed Precip Events Conditions
12:55 AM 39.0 °F - 35.1 °F 86% 29.96 in 10.0 mi Calm Calm - N/A   Partly Cloudy
1:55 AM 37.9 °F 35.5 °F 35.1 °F 89% 29.95 in 10.0 mi Variable 3.5 mph - N/A   Overcast
2:55 AM 37.0 °F - 35.1 °F 93% 29.94 in 10.0 mi Calm Calm - N/A   Overcast
3:55 AM 37.9 °F 34.4 °F 33.1 °F 83% 29.94 in 10.0 mi South 4.6 mph - N/A   Overcast
4:55 AM 37.9 °F - 35.1 °F 89% 29.95 in 10.0 mi Calm Calm - N/A   Mostly Cloudy
5:55 AM 36.0 °F - 34.0 °F 93% 29.96 in 10.0 mi Calm Calm - N/A   Scattered Clouds
6:55 AM 37.0 °F - 35.1 °F 93% 29.96 in 10.0 mi Calm Calm - N/A   Clear
7:55 AM 41.0 °F 39.0 °F 36.0 °F 82% 29.96 in 10.0 mi ENE 3.5 mph - N/A   Clear
8:55 AM 45.0 °F 41.2 °F 35.1 °F 68% 29.94 in 10.0 mi Variable 6.9 mph - N/A   Clear
9:55 AM 48.9 °F - 30.9 °F 50% 29.94 in 10.0 mi Variable 4.6 mph - N/A   Scattered Clouds
10:55 AM 48.9 °F - 28.0 °F 44% 29.96 in 10.0 mi SSE 5.8 mph - N/A   Overcast
11:55 AM 53.1 °F - 28.0 °F 38% 29.94 in 10.0 mi SSE 9.2 mph - N/A   Overcast
12:55 PM 55.0 °F - 27.0 °F 34% 29.92 in 10.0 mi ESE 5.8 mph - N/A   Scattered Clouds
1:55 PM 57.0 °F - 28.9 °F 34% 29.90 in 10.0 mi East 11.5 mph - N/A   Partly Cloudy
2:55 PM 59.0 °F - 28.0 °F 31% 29.89 in 10.0 mi East 10.4 mph - N/A   Scattered Clouds
3:55 PM 59.0 °F - 26.1 °F 28% 29.89 in 10.0 mi ESE 3.5 mph - N/A   Overcast
4:55 PM 62.1 °F - 26.1 °F 25% 29.86 in 10.0 mi ESE 8.1 mph - N/A   Scattered Clouds
5:55 PM 60.1 °F - 30.0 °F 32% 29.89 in 10.0 mi East 5.8 mph - N/A   Overcast
6:55 PM 61.0 °F - 30.0 °F 31% 29.91 in 10.0 mi West 16.1 mph 25.3 mph N/A   Mostly Cloudy
7:55 PM 59.0 °F - 33.1 °F 38% 29.92 in 10.0 mi West 15.0 mph - N/A   Clear
8:55 PM 57.9 °F - 30.9 °F 36% 29.92 in 10.0 mi WSW 10.4 mph - N/A   Partly Cloudy
9:55 PM 55.9 °F - 32.0 °F 40% 29.93 in 10.0 mi SSW 6.9 mph - N/A   Mostly Cloudy
10:55 PM 54.0 °F - 30.9 °F 41% 29.97 in 10.0 mi WSW 9.2 mph - N/A   Unknown
11:55 PM 53.1 °F - 32.0 °F 45% 29.99 in 10.0 mi SSW 5.8 mph - N/A   Partly Cloudy